Temp
12 12 12 12 12 12 12 12 12 12 12 12 12 12 12 12 12 12 12 12 12 12 12 12 12 12 12 12 12 11 11 11 11 11 11 11 11 10 10 10 10 10 10 10 10 9 9 9 9 9 9 9 9 8 8 8 8 9 9 9 9 9 9 9 9 9 9 9 9
12 12 12 12 12 12 12 12 12 12 12 12 12 12 12 12 12 12 12 12 12 12 12 12 12 12 12 11 11 11 11 11 11 11 10 10 10 10 10 10 10 10 10 10 10 9 9 9 9 9 9 9 8 8 8 8 8 8 9 9 9 9 9 9 9 9 9 8 8
12 12 12 12 11 11 11 11 11 11 12 12 12 12 12 12 12 12 12 12 12 12 12 12 12 11 11 11 11 11 11 11 11 10 10 10 10 10 10 10 10 10 10 10 10 9 9 9 9 9 9 9 8 8 8 8 7 8 8 8 9 9 9 9 9 8 8 8 8
12 12 12 11 11 11 11 11 11 12 12 12 12 12 12 12 12 12 12 12 12 12 11 11 11 11 11 11 11 11 11 11 10 10 10 10 10 10 10 10 10 10 10 10 10 9 9 9 9 9 9 9 8 8 8 8 7 7 8 8 8 8 8 8 8 8 8 8 8
12 12 12 12 12 12 12 12 12 12 12 12 11 11 12 12 12 12 12 12 11 11 11 11 11 11 11 11 11 11 10 10 10 10 10 10 10 10 10 10 10 10 10 10 10 9 9 9 9 9 9 9 8 8 8 8 8 7 7 7 8 8 8 8 8 8 8 8 8
12 12 11 11 11 11 12 12 12 12 11 11 11 11 11 11 11 11 11 11 11 12 11 11 11 11 11 11 11 11 10 10 10 10 10 10 10 10 10 10 10 10 10 10 10 10 10 9 9 9 9 9 8 8 8 8 8 7 7 7 7 8 8 8 8 8 8 8 8
12 12 11 11 11 11 11 11 11 11 11 11 11 11 11 11 11 11 11 11 11 11 11 11 11 11 11 11 11 11 10 10 10 10 10 10 10 10 10 10 10 10 10 10 10 10 9 9 9 9 9 9 8 8 8 8 8 7 7 7 7 7 7 8 8 8 8 8 8
12 11 11 11 11 11 11 11 11 11 11 11 11 11 11 11 11 11 11 11 11 11 11 11 11 11 11 11 11 10 10 10 10 10 10 10 10 10 10 10 10 10 10 10 9 9 9 9 9 9 9 9 8 8 8 8 8 8 7 7 6 6 7 7 8 8 8 8 8
11 11 11 11 11 11 11 11 11 11 11 11 11 11 11 11 11 11 11 11 11 11 11 11 11 11 11 10 10 10 10 10 10 10 10 10 10 10 10 10 10 10 10 10 9 9 9 9 9 9 9 8 8 8 8 8 8 8 7 7 7 6 6 7 7 7 7 7 7
11 11 11 11 11 11 11 11 11 11 11 11 11 11 11 11 11 11 11 11 11 11 11 11 11 10 10 10 10 10 10 10 10 10 10 10 10 10 10 10 10 10 10 10 9 9 9 9 9 9 9 8 8 8 8 8 8 8 8 7 7 7 6 6 6 7 7 7 7
11 11 11 11 11 11 11 11 10 11 11 11 11 11 11 11 11 11 11 11 11 11 11 11 10 10 10 10 10 10 10 10 10 10 9 9 9 10 10 10 10 10 10 9 9 9 9 9 9 9 9 8 8 8 8 8 8 8 8 8 7 7 6 6 6 6 6 6 6
11 11 11 11 11 11 10 10 10 10 10 10 11 11 11 11 11 11 11 11 11 11 10 10 10 10 10 10 10 10 9 9 9 9 9 9 9 9 9 9 9 9 9 9 9 9 9 9 9 9 9 8 8 8 8 8 8 8 8 8 7 7 6 5 5 5 5 5 6
11 11 11 11 11 10 10 10 10 10 10 10 10 10 10 10 10 10 10 10 10 10 10 10 10 10 10 10 10 9 9 9 9 9 9 9 9 9 9 9 9 9 9 9 9 9 9 9 9 9 9 9 8 8 8 8 8 8 8 8 7 7 6 6 5 4 4 4 4
11 11 11 11 11 10 10 10 10 10 10 10 10 10 10 10 10 10 10 10 10 10 10 10 10 10 10 10 9 9 9 9 9 9 9 9 9 9 9 9 9 9 9 9 9 9 9 9 9 9 9 8 8 8 8 8 8 8 8 8 7 7 7 6 6 5 4 4 3
11 11 11 11 11 10 10 10 10 10 10 10 10 10 10 10 10 10 10 10 10 10 10 10 10 10 9 9 9 9 9 9 9 9 9 9 8 8 8 8 8 8 9 9 9 9 8 8 8 8 8 8 8 8 8 8 8 8 8 7 7 7 7 7 6 6 5 4 3
11 11 11 11 11 11 10 10 10 10 10 10 10 10 10 10 10 10 10 10 10 10 10 9 9 9 9 9 9 9 9 9 9 9 9 9 8 8 8 8 8 8 9 9 9 8 8 8 8 8 8 8 8 8 8 8 8 7 7 7 7 7 7 7 6 6 5 4 3
11 11 11 11 11 11 11 11 10 10 10 10 10 10 10 10 10 10 10 10 10 9 9 9 9 9 9 9 9 9 9 9 9 9 9 9 8 8 8 8 8 8 8 8 8 8 8 8 8 8 8 8 8 8 7 7 7 7 7 7 7 7 7 7 6 5 4 3 3
11 11 11 11 11 11 11 11 11 11 10 10 10 10 10 10 10 10 10 9 9 9 9 9 9 9 9 9 9 9 9 9 9 8 8 8 8 8 8 8 8 8 8 8 8 8 8 8 8 8 7 7 7 7 7 7 7 7 7 7 7 7 6 6 5 4 4 3 3
11 11 11 11 11 11 11 11 11 11 10 10 10 10 10 10 10 10 9 9 9 9 9 9 9 9 9 9 9 8 8 8 8 8 8 8 8 8 8 8 8 8 8 8 8 8 8 8 8 8 7 7 7 7 7 6 6 6 6 6 6 6 5 5 4 4 3 3 3
11 11 11 11 11 11 11 11 11 10 10 10 10 10 10 10 9 9 9 9 9 9 9 9 9 9 9 8 8 8 8 8 8 8 8 8 9 8 8 8 8 8 8 8 8 8 8 8 8 8 7 7 7 6 6 6 5 5 5 5 5 5 5 4 4 3 3 3 3
11 11 11 11 11 11 11 10 10 10 10 10 10 10 10 9 9 9 9 9 9 9 9 9 9 9 8 8 8 8 8 8 8 8 9 9 9 8 8 8 8 8 8 8 8 8 8 8 8 8 7 7 6 6 6 5 5 5 5 5 5 4 4 4 3 3 3 3 3
11 11 11 11 11 10 10 10 10 10 10 10 10 9 9 9 9 9 9 9 9 9 9 9 9 8 8 8 8 8 8 8 9 9 8 8 8 8 8 8 8 8 8 8 8 8 8 8 7 7 7 7 6 6 6 5 5 5 4 4 4 4 4 3 3 3 3 3 3
11 11 10 10 10 10 10 10 10 10 10 10 9 9 9 9 9 9 9 9 9 9 9 9 8 8 8 8 8 8 8 8 9 8 8 8 8 8 8 8 8 8 8 7 7 7 7 7 7 7 7 6 6 6 5 5 5 4 4 4 4 4 4 3 3 3 3 3 3
10 10 10 10 10 10 10 10 10 10 9 9 9 9 9 9 9 9 9 9 9 9 8 8 8 8 8 8 8 8 8 8 8 8 8 8 8 8 8 7 7 7 7 7 7 7 7 7 7 6 6 6 6 5 5 5 5 4 4 4 4 3 3 3 3 3 3 3 3
10 10 10 10 10 10 10 10 9 9 9 9 9 9 9 9 9 9 9 9 8 8 8 8 8 8 7 7 8 8 8 8 8 8 8 7 7 7 7 7 7 7 7 7 7 7 7 6 6 6 6 6 5 5 5 5 5 4 4 3 3 3 3 3 3 3 4 4 4
10 10 10 10 10 10 10 9 9 9 9 9 9 9 9 9 8 8 8 8 8 8 8 8 8 8 8 8 8 8 8 8 8 7 7 7 7 7 7 7 7 7 7 7 7 6 6 6 6 6 6 5 5 5 5 5 4 4 3 3 3 3 3 3 4 4 4 4 3
10 10 10 10 10 9 9 9 9 9 9 9 9 9 9 8 8 8 8 8 8 8 8 8 8 8 8 8 8 8 8 7 7 7 7 7 7 7 6 6 6 6 6 6 6 6 6 6 6 6 5 5 5 5 5 5 4 4 3 3 3 3 3 4 4 4 4 4 3
10 10 10 10 10 9 9 9 9 9 9 9 9 9 9 9 9 9 9 9 8 8 8 8 8 8 8 8 7 7 7 7 7 7 6 6 6 6 6 6 6 6 6 6 6 6 6 5 5 5 5 5 5 5 5 4 4 4 3 3 3 4 4 4 4 4 4 3 3
10 10 10 10 10 10 9 9 9 9 9 9 9 9 9 9 9 9 9 8 8 8 8 8 8 8 7 7 7 7 7 7 7 6 6 6 6 6 6 5 6 6 6 6 6 5 5 5 5 5 5 5 5 5 4 4 4 4 4 4 4 4 4 4 4 3 3 3 3
10 10 10 10 10 10 10 9 9 9 9 9 9 9 9 9 9 8 8 8 8 8 8 8 8 7 7 7 7 7 7 7 6 6 6 6 6 6 5 5 5 5 6 5 5 5 5 5 5 5 5 5 5 4 4 4 4 4 4 4 4 4 4 4 3 3 3 3 3
10 10 10 10 10 10 10 10 9 9 9 9 9 9 9 9 8 8 8 8 8 8 8 7 7 7 7 7 7 7 7 6 6 6 6 6 5 5 5 5 5 5 5 5 5 5 5 4 4 4 5 4 4 4 4 4 4 4 4 4 4 4 4 3 3 3 3 3 3
10 10 10 10 10 10 10 10 10 9 9 9 9 9 9 9 8 8 8 8 8 8 8 7 7 7 7 7 7 6 6 6 6 6 5 5 5 5 5 5 5 5 5 5 5 5 4 4 4 4 4 4 4 4 4 4 4 4 4 4 4 4 3 3 3 3 3 3 3
11 11 10 10 10 10 10 10 10 10 10 9 9 9 9 9 9 8 8 8 8 8 8 7 7 7 7 7 6 6 6 6 6 6 5 5 5 5 5 4 4 5 5 5 4 4 4 4 4 4 4 4 4 4 4 4 4 4 4 4 4 3 3 3 3 3 3 3 2
11 11 11 11 11 10 10 10 10 10 10 10 10 9 9 9 9 9 8 8 8 8 8 7 7 7 7 7 6 6 6 6 6 6 5 5 5 4 4 4 4 4 5 4 4 4 4 4 4 4 4 4 4 4 4 4 4 4 4 4 4 3 3 3 3 3 3 3 2
11 11 11 11 11 11 11 11 10 10 10 10 10 10 9 9 9 9 8 8 8 8 8 7 7 7 7 7 6 6 6 6 6 5 5 5 4 4 4 4 4 4 4 4 4 4 4 4 4 4 4 4 4 4 4 4 4 4 4 4 3 3 3 3 3 3 3 3 2
11 11 11 11 11 11 11 11 10 10 10 10 10 10 9 9 9 9 8 8 8 8 7 7 7 7 7 7 6 6 6 6 5 5 5 5 4 4 4 4 4 4 4 4 4 4 4 4 4 4 4 4 4 4 4 4 4 4 4 4 3 3 3 3 3 3 3 3 2
11 11 11 11 11 11 11 11 10 10 10 10 10 9 9 9 9 8 8 8 8 8 7 7 7 7 7 6 6 6 6 5 5 5 5 4 4 4 4 4 4 4 4 4 4 4 4 4 4 4 4 4 4 4 4 4 4 4 4 3 3 3 3 3 3 3 3 2 2
11 11 11 11 11 11 11 11 10 10 10 10 10 9 9 9 9 9 8 8 8 8 8 7 7 7 7 6 6 6 6 5 5 5 4 4 4 4 4 4 4 4 4 4 4 4 4 4 4 4 4 4 4 4 4 4 4 4 4 3 3 3 3 3 3 2 2 2 2
11 11 11 11 11 11 11 11 10 10 10 10 10 9 9 9 9 9 9 8 8 8 8 7 7 7 7 6 6 6 5 5 5 5 4 4 4 4 4 4 4 4 4 4 4 4 4 4 4 4 4 4 4 4 4 4 4 4 4 3 3 3 3 3 2 2 2 2 2
12 11 11 11 11 11 11 11 10 10 10 10 10 10 10 9 9 9 9 8 8 8 8 7 7 7 6 6 6 5 5 5 5 4 4 4 4 4 4 4 4 4 4 4 4 4 4 4 4 4 4 4 4 4 4 4 4 4 3 3 3 3 3 3 2 2 2 2 2
12 12 12 11 11 11 11 10 10 10 10 10 10 10 10 9 9 9 8 8 8 8 7 7 7 6 6 6 6 5 5 5 5 4 4 4 4 4 4 4 4 4 4 4 4 4 4 4 4 4 4 4 4 4 4 4 4 4 3 3 3 3 3 3 2 2 2 2 2
Height
1475 1476 1477 1478 1479 1480 1481 1482 1484 1485 1487 1488 1490 1491 1492 1494 1495 1496 1497 1499 1500 1501 1502 1503 1505 1506 1507 1508 1509 1510 1511 1511 1512 1512 1513 1514 1514 1515 1516 1516 1517 1517 1517 1517 1517 1518 1519 1519 1520 1521 1522 1523 1524 1524 1525 1527 1528 1529 1530 1530 1531 1532 1532 1532 1532 1532 1533 1533 1533
1474 1475 1476 1477 1478 1479 1481 1482 1483 1484 1486 1487 1489 1490 1492 1493 1494 1495 1496 1497 1498 1500 1501 1502 1503 1504 1506 1507 1507 1508 1509 1510 1510 1511 1512 1512 1512 1513 1514 1514 1515 1515 1515 1515 1516 1516 1517 1517 1518 1520 1521 1522 1522 1522 1523 1525 1527 1528 1528 1529 1530 1530 1531 1531 1531 1531 1531 1531 1531
1473 1474 1475 1476 1477 1478 1479 1481 1482 1483 1485 1487 1488 1489 1491 1492 1493 1494 1495 1496 1497 1499 1500 1501 1502 1503 1504 1505 1506 1507 1507 1508 1509 1509 1510 1510 1511 1512 1512 1513 1513 1514 1514 1514 1514 1515 1515 1516 1517 1518 1519 1519 1520 1521 1522 1523 1525 1526 1527 1528 1528 1529 1529 1529 1530 1530 1530 1530 1530
1472 1472 1473 1474 1475 1477 1478 1479 1481 1483 1484 1486 1487 1488 1490 1491 1492 1493 1494 1496 1497 1497 1498 1499 1501 1502 1502 1504 1504 1505 1506 1507 1507 1508 1508 1508 1509 1510 1510 1511 1511 1512 1512 1512 1513 1513 1514 1515 1516 1516 1517 1518 1519 1520 1520 1521 1522 1524 1525 1526 1527 1527 1528 1528 1528 1528 1528 1528 1529
1470 1471 1472 1473 1474 1476 1477 1479 1481 1482 1484 1485 1487 1487 1489 1490 1491 1492 1493 1494 1495 1496 1497 1498 1499 1500 1501 1502 1503 1504 1504 1505 1506 1506 1506 1507 1508 1508 1509 1509 1509 1510 1511 1511 1512 1512 1512 1513 1514 1515 1515 1516 1517 1518 1519 1519 1520 1522 1523 1524 1525 1526 1526 1527 1527 1527 1527 1527 1527
1469 1470 1471 1472 1474 1475 1477 1478 1480 1482 1483 1484 1485 1487 1488 1489 1490 1491 1492 1493 1494 1495 1496 1497 1498 1499 1500 1501 1501 1502 1503 1503 1504 1504 1505 1505 1506 1507 1507 1507 1508 1509 1509 1510 1510 1511 1511 1512 1512 1513 1514 1514 1515 1516 1517 1517 1518 1519 1521 1522 1523 1524 1525 1525 1525 1526 1526 1526 1526
1468 1469 1470 1472 1473 1474 1476 1477 1479 1481 1482 1483 1484 1485 1487 1488 1489 1490 1491 1492 1493 1494 1495 1496 1497 1497 1498 1499 1500 1501 1501 1502 1502 1502 1503 1504 1504 1504 1505 1505 1506 1507 1508 1508 1508 1509 1510 1510 1511 1511 1512 1512 1513 1514 1515 1515 1516 1517 1518 1519 1521 1522 1523 1523 1524 1524 1524 1525 1525
1467 1468 1469 1471 1472 1473 1475 1477 1478 1479 1481 1482 1483 1484 1486 1487 1488 1489 1490 1491 1491 1492 1493 1495 1496 1496 1497 1498 1498 1499 1499 1500 1501 1501 1502 1502 1502 1503 1503 1504 1505 1505 1506 1506 1507 1507 1507 1508 1509 1509 1510 1510 1511 1512 1512 1513 1514 1515 1516 1517 1518 1520 1521 1522 1522 1522 1523 1523 1523
1466 1467 1468 1470 1471 1472 1474 1475 1477 1478 1479 1481 1482 1483 1485 1486 1487 1488 1488 1489 1490 1491 1492 1493 1494 1495 1496 1497 1497 1497 1498 1499 1499 1500 1500 1501 1501 1502 1502 1503 1503 1503 1504 1504 1505 1505 1506 1507 1507 1508 1508 1509 1509 1510 1510 1511 1512 1514 1515 1515 1516 1517 1519 1520 1520 1521 1522 1522 1522
1465 1466 1467 1469 1470 1472 1473 1474 1476 1477 1479 1480 1481 1482 1484 1485 1486 1487 1487 1488 1489 1491 1492 1492 1493 1494 1495 1495 1496 1497 1497 1497 1498 1498 1499 1499 1500 1500 1501 1501 1501 1502 1502 1502 1503 1503 1504 1505 1505 1506 1507 1507 1508 1508 1509 1510 1512 1513 1513 1514 1514 1515 1516 1518 1519 1520 1520 1521 1521
1464 1465 1466 1467 1469 1470 1472 1473 1475 1476 1478 1479 1480 1482 1482 1483 1484 1486 1487 1488 1489 1490 1491 1492 1492 1493 1493 1494 1495 1495 1496 1496 1496 1497 1497 1498 1498 1499 1499 1499 1499 1500 1500 1501 1501 1502 1503 1503 1504 1505 1505 1506 1506 1507 1507 1509 1511 1512 1512 1512 1512 1513 1514 1516 1517 1518 1519 1519 1520
1463 1464 1465 1467 1468 1469 1471 1472 1474 1475 1477 1478 1479 1480 1481 1482 1483 1485 1486 1487 1487 1489 1490 1490 1491 1492 1492 1493 1493 1494 1494 1494 1495 1495 1496 1496 1497 1497 1497 1498 1498 1498 1499 1499 1500 1501 1501 1502 1503 1503 1504 1504 1505 1505 1506 1508 1509 1510 1510 1510 1510 1511 1511 1513 1514 1516 1517 1518 1518
1462 1463 1465 1466 1467 1468 1470 1471 1473 1474 1475 1477 1478 1479 1480 1482 1483 1484 1485 1486 1487 1487 1488 1489 1490 1491 1491 1492 1492 1492 1493 1493 1494 1494 1495 1495 1496 1496 1496 1497 1497 1497 1497 1498 1498 1499 1500 1501 1502 1502 1502 1503 1503 1504 1505 1506 1507 1508 1508 1509 1509 1509 1509 1510 1511 1512 1513 1514 1516
1461 1462 1464 1465 1466 1467 1469 1470 1472 1473 1474 1476 1477 1478 1479 1481 1482 1483 1484 1485 1486 1487 1487 1488 1489 1489 1490 1490 1491 1491 1492 1492 1493 1493 1494 1494 1494 1495 1495 1495 1496 1496 1496 1497 1497 1498 1498 1499 1500 1500 1501 1502 1502 1502 1503 1504 1505 1506 1507 1507 1507 1507 1507 1507 1507 1508 1509 1510 1512
1460 1462 1463 1464 1465 1467 1468 1469 1471 1472 1473 1475 1476 1477 1478 1480 1481 1482 1483 1484 1485 1486 1487 1487 1488 1488 1489 1489 1490 1491 1491 1491 1492 1492 1492 1493 1493 1493 1494 1494 1494 1495 1495 1495 1496 1496 1497 1497 1498 1499 1499 1500 1500 1501 1502 1503 1503 1504 1505 1505 1505 1505 1505 1505 1505 1505 1506 1507 1510
1459 1461 1462 1463 1465 1466 1467 1468 1470 1471 1472 1474 1475 1476 1477 1479 1480 1481 1482 1483 1484 1485 1485 1486 1487 1487 1488 1489 1489 1490 1490 1490 1490 1491 1491 1492 1492 1492 1492 1493 1493 1493 1494 1494 1494 1494 1495 1496 1496 1497 1497 1498 1498 1499 1500 1501 1502 1502 1502 1503 1503 1503 1503 1503 1503 1503 1504 1506 1508
1459 1460 1461 1462 1464 1465 1467 1468 1469 1471 1472 1473 1474 1476 1477 1478 1479 1480 1481 1482 1483 1484 1484 1485 1486 1486 1487 1487 1488 1488 1489 1489 1489 1490 1490 1490 1491 1491 1492 1492 1492 1492 1492 1493 1493 1493 1493 1494 1494 1495 1496 1496 1497 1497 1498 1499 1499 1500 1500 1501 1501 1501 1501 1501 1501 1502 1504 1505 1507
1458 1459 1461 1462 1463 1465 1466 1467 1468 1470 1471 1472 1473 1475 1476 1477 1478 1479 1480 1481 1482 1482 1483 1484 1485 1485 1486 1486 1487 1487 1487 1488 1488 1489 1489 1489 1490 1490 1491 1491 1491 1491 1492 1492 1492 1492 1492 1492 1493 1493 1494 1494 1495 1496 1496 1497 1497 1498 1498 1499 1499 1499 1499 1500 1501 1501 1502 1504 1506
1458 1459 1460 1462 1463 1464 1466 1467 1468 1469 1470 1472 1473 1474 1475 1476 1477 1478 1479 1480 1481 1482 1482 1483 1484 1484 1485 1485 1486 1486 1487 1487 1487 1488 1488 1489 1489 1489 1490 1490 1490 1490 1491 1491 1491 1491 1491 1491 1492 1492 1492 1492 1493 1494 1494 1495 1495 1496 1497 1497 1497 1497 1498 1499 1499 1500 1502 1503 1505
1457 1459 1460 1461 1462 1464 1465 1466 1467 1469 1470 1471 1472 1473 1474 1475 1477 1477 1478 1479 1480 1481 1482 1482 1482 1483 1483 1484 1485 1485 1486 1486 1487 1487 1487 1487 1488 1488 1488 1489 1489 1489 1489 1489 1490 1490 1490 1490 1491 1491 1491 1491 1491 1492 1492 1493 1493 1494 1495 1495 1496 1496 1497 1497 1498 1499 1501 1503 1505
1457 1458 1460 1461 1462 1463 1464 1466 1467 1468 1469 1470 1471 1472 1473 1475 1476 1477 1477 1478 1479 1480 1480 1481 1482 1482 1482 1483 1483 1484 1484 1485 1486 1486 1486 1486 1487 1487 1487 1487 1487 1488 1488 1488 1488 1488 1489 1489 1489 1489 1489 1489 1490 1490 1490 1491 1491 1492 1493 1494 1494 1495 1496 1496 1497 1499 1501 1502 1504
1457 1458 1459 1460 1462 1463 1464 1465 1466 1467 1468 1469 1471 1472 1472 1473 1475 1476 1476 1477 1478 1479 1479 1480 1480 1481 1482 1482 1482 1483 1483 1484 1484 1485 1485 1485 1485 1486 1486 1486 1487 1487 1487 1487 1487 1487 1487 1487 1487 1487 1488 1488 1488 1488 1489 1489 1490 1491 1491 1492 1493 1493 1494 1495 1496 1498 1500 1501 1503
1456 1457 1459 1460 1461 1462 1463 1464 1465 1467 1467 1469 1470 1471 1472 1472 1473 1474 1475 1476 1477 1477 1478 1479 1479 1480 1480 1481 1481 1482 1482 1483 1483 1483 1484 1484 1484 1485 1485 1485 1486 1486 1486 1486 1486 1486 1486 1486 1486 1486 1486 1487 1487 1487 1487 1488 1488 1489 1490 1491 1492 1492 1493 1493 1495 1497 1498 1500 1502
1456 1457 1458 1459 1460 1462 1462 1464 1465 1466 1467 1468 1469 1470 1471 1472 1472 1473 1474 1475 1476 1476 1477 1477 1478 1479 1479 1480 1480 1481 1482 1482 1482 1482 1482 1483 1483 1483 1484 1484 1484 1485 1484 1484 1484 1484 1484 1484 1484 1485 1485 1485 1485 1486 1486 1487 1487 1488 1489 1490 1490 1491 1492 1493 1494 1496 1497 1499 1500
1455 1457 1457 1459 1460 1461 1462 1463 1464 1465 1466 1467 1468 1469 1470 1471 1472 1472 1473 1474 1474 1475 1476 1477 1477 1477 1478 1479 1479 1480 1480 1481 1481 1481 1481 1482 1482 1482 1482 1483 1483 1483 1483 1483 1483 1483 1483 1483 1483 1483 1484 1484 1484 1485 1485 1485 1486 1487 1488 1489 1490 1491 1492 1492 1494 1495 1497 1498 1499
1455 1456 1457 1458 1459 1460 1461 1462 1463 1464 1465 1466 1467 1468 1469 1470 1470 1471 1472 1472 1473 1474 1475 1475 1476 1477 1477 1478 1478 1479 1479 1480 1480 1480 1480 1481 1481 1481 1481 1482 1482 1482 1482 1482 1482 1482 1482 1482 1482 1482 1483 1483 1483 1483 1484 1484 1485 1486 1487 1488 1489 1490 1491 1492 1493 1495 1496 1497 1499
1454 1455 1456 1457 1458 1459 1460 1461 1462 1463 1464 1465 1466 1467 1468 1468 1469 1470 1471 1472 1472 1473 1474 1474 1475 1476 1476 1477 1477 1478 1478 1478 1479 1479 1479 1480 1480 1480 1480 1481 1481 1481 1481 1481 1481 1481 1481 1481 1481 1482 1482 1482 1482 1483 1483 1484 1484 1485 1486 1487 1488 1490 1491 1492 1493 1494 1496 1497 1498
1454 1455 1456 1457 1457 1458 1459 1460 1461 1462 1463 1464 1465 1466 1467 1467 1468 1469 1470 1471 1471 1472 1473 1473 1474 1475 1475 1476 1476 1477 1477 1477 1477 1478 1478 1478 1479 1479 1479 1480 1480 1480 1480 1480 1480 1480 1480 1480 1480 1481 1481 1481 1482 1482 1482 1483 1484 1484 1486 1487 1488 1489 1491 1492 1493 1494 1496 1497 1497
1453 1454 1455 1456 1457 1458 1459 1460 1461 1462 1462 1463 1464 1465 1466 1467 1467 1468 1469 1470 1470 1471 1472 1472 1473 1473 1474 1474 1475 1475 1476 1476 1477 1477 1477 1477 1478 1478 1478 1479 1479 1479 1479 1479 1479 1479 1479 1479 1479 1480 1480 1481 1481 1482 1482 1482 1483 1484 1485 1487 1488 1489 1490 1491 1492 1494 1495 1496 1497
1452 1453 1454 1455 1456 1457 1458 1459 1460 1461 1462 1462 1463 1464 1465 1466 1467 1467 1468 1468 1469 1470 1471 1471 1472 1472 1473 1473 1474 1474 1474 1475 1475 1476 1476 1476 1477 1477 1477 1478 1478 1478 1478 1478 1478 1478 1478 1478 1478 1479 1479 1480 1480 1481 1482 1482 1483 1484 1485 1486 1487 1488 1490 1491 1492 1493 1494 1495 1496
1452 1453 1454 1455 1456 1456 1457 1458 1459 1460 1461 1462 1462 1463 1464 1465 1465 1466 1467 1467 1468 1469 1469 1470 1471 1471 1472 1472 1472 1473 1473 1474 1474 1474 1475 1475 1476 1476 1476 1477 1477 1477 1477 1477 1477 1477 1477 1477 1477 1478 1478 1479 1480 1480 1481 1482 1482 1483 1484 1485 1487 1488 1489 1491 1492 1493 1493 1494 1494
1452 1452 1453 1454 1455 1456 1457 1457 1458 1459 1460 1461 1462 1462 1463 1464 1464 1465 1466 1467 1467 1468 1468 1469 1469 1470 1470 1471 1471 1472 1472 1472 1473 1473 1474 1474 1474 1475 1475 1475 1476 1476 1476 1476 1476 1476 1476 1476 1477 1477 1477 1478 1479 1480 1480 1481 1482 1483 1484 1485 1486 1488 1489 1490 1491 1492 1492 1493 1493
1451 1452 1453 1454 1454 1455 1456 1457 1458 1458 1459 1460 1461 1462 1462 1463 1464 1464 1465 1466 1466 1467 1467 1468 1468 1469 1469 1470 1470 1470 1471 1471 1472 1472 1472 1473 1473 1473 1474 1474 1475 1475 1475 1475 1475 1475 1475 1476 1476 1476 1477 1477 1478 1479 1480 1481 1482 1482 1484 1485 1486 1487 1488 1490 1490 1491 1491 1492 1492
1451 1452 1452 1453 1454 1455 1456 1457 1457 1458 1459 1460 1460 1461 1462 1462 1463 1463 1464 1465 1465 1466 1466 1467 1467 1467 1468 1468 1469 1469 1470 1470 1471 1471 1471 1472 1472 1472 1473 1473 1473 1474 1474 1474 1474 1474 1474 1475 1475 1476 1476 1477 1478 1479 1480 1480 1481 1482 1483 1484 1486 1487 1488 1489 1489 1490 1490 1490 1490
1451 1452 1452 1453 1454 1455 1456 1456 1457 1458 1458 1459 1460 1460 1461 1462 1462 1463 1463 1464 1464 1465 1465 1466 1466 1467 1467 1467 1468 1468 1469 1469 1469 1470 1470 1470 1471 1471 1472 1472 1472 1472 1473 1473 1473 1473 1474 1474 1475 1475 1476 1477 1477 1478 1479 1480 1481 1482 1483 1484 1485 1486 1487 1488 1488 1489 1489 1489 1489
1451 1451 1452 1453 1454 1454 1455 1456 1457 1457 1458 1458 1459 1460 1460 1461 1461 1462 1462 1463 1463 1464 1464 1465 1465 1465 1466 1466 1467 1467 1467 1468 1468 1468 1469 1469 1469 1470 1471 1471 1471 1471 1472 1472 1472 1472 1473 1474 1474 1475 1476 1476 1477 1478 1479 1480 1481 1482 1483 1484 1485 1486 1487 1487 1487 1488 1488 1488 1488
1450 1451 1452 1453 1453 1454 1455 1455 1456 1457 1457 1458 1458 1459 1459 1460 1460 1461 1462 1462 1462 1463 1463 1463 1464 1464 1465 1465 1465 1466 1466 1467 1467 1467 1467 1468 1468 1469 1469 1470 1470 1470 1471 1471 1472 1472 1472 1473 1474 1475 1475 1476 1477 1478 1479 1480 1481 1482 1483 1484 1485 1485 1486 1486 1487 1487 1487 1487 1487
1450 1451 1452 1452 1453 1454 1454 1455 1456 1456 1457 1457 1457 1458 1458 1459 1460 1460 1461 1461 1462 1462 1462 1462 1463 1463 1463 1464 1464 1465 1465 1465 1466 1466 1467 1467 1467 1468 1469 1469 1469 1470 1470 1471 1471 1472 1472 1473 1474 1474 1475 1476 1477 1478 1479 1480 1481 1482 1482 1483 1484 1484 1485 1485 1485 1486 1486 1486 1486
1450 1451 1451 1452 1452 1453 1454 1454 1455 1456 1456 1457 1457 1457 1458 1458 1459 1459 1460 1461 1461 1461 1461 1462 1462 1462 1462 1463 1463 1464 1464 1464 1465 1465 1466 1466 1467 1467 1468 1468 1469 1469 1470 1470 1471 1472 1472 1473 1474 1474 1475 1476 1477 1478 1479 1480 1481 1481 1482 1483 1483 1483 1484 1484 1484 1484 1484 1484 1484
1450 1450 1451 1452 1452 1453 1453 1454 1455 1455 1456 1456 1457 1457 1457 1458 1458 1459 1459 1460 1460 1461 1461 1461 1461 1462 1462 1462 1463 1463 1463 1464 1464 1465 1465 1466 1467 1467 1468 1468 1468 1469 1469 1470 1471 1471 1472 1473 1474 1474 1475 1476 1477 1478 1479 1479 1480 1481 1482 1482 1482 1483 1483 1483 1483 1483 1483 1483 1483
1449 1450 1451 1451 1452 1452 1453 1454 1454 1455 1455 1456 1456 1457 1457 1458 1458 1459 1459 1459 1460 1460 1460 1460 1461 1461 1462 1462 1462 1462 1463 1463 1464 1464 1465 1466 1466 1467 1467 1468 1468 1469 1469 1470 1471 1471 1472 1473 1474 1474 1475 1476 1477 1477 1478 1479 1480 1480 1481 1481 1482 1482 1482 1482 1482 1482 1482 1482 1481
Wind_Speed
39 40 40 40 40 39 39 38 38 37 37 36 35 34 34 33 32 31 31 30 29 28 27 26 25 24 23 23 24 24 25 26 27 28 29 29 28 28 27 27 28 30 33 36 37 36 34 31 30 31 32 31 28 26 26 26 27 28 28 28 27 26 25 24 23 23 22 21 21
38 39 40 40 40 39 39 38 37 37 36 35 34 34 33 33 32 31 30 30 29 28 27 26 25 24 24 23 23 23 24 25 26 27 28 29 29 29 28 28 28 30 32 36 37 36 33 31 30 31 33 32 30 28 26 26 26 28 28 29 28 27 26 25 24 24 23 22 22
37 38 39 39 39 39 38 37 37 36 35 35 34 33 33 32 31 31 30 29 28 27 27 26 25 24 23 23 22 22 22 23 24 25 27 28 28 29 29 29 29 30 32 35 36 35 33 30 30 31 33 33 31 29 27 26 26 27 28 29 29 28 27 26 25 25 24 23 23
35 37 38 38 38 38 37 37 36 36 35 34 33 32 31 30 29 29 28 27 27 27 27 26 25 24 23 23 22 21 21 21 22 23 24 25 26 27 28 30 31 31 32 34 35 34 32 30 30 32 33 33 31 29 27 26 26 27 28 29 29 29 28 27 26 26 25 24 23
34 35 36 36 36 36 36 36 35 34 33 33 32 31 30 29 28 27 26 26 27 27 26 25 24 24 23 22 22 21 20 20 21 21 22 23 23 24 26 28 30 31 32 33 34 33 33 32 32 32 33 33 31 30 29 28 27 27 28 29 30 30 29 28 27 27 26 25 24
31 33 34 35 35 34 34 33 32 31 31 30 30 29 29 28 27 26 26 25 24 24 24 24 24 23 23 22 21 20 20 20 20 20 21 22 22 23 24 26 27 29 30 31 32 33 34 33 33 33 33 32 32 31 30 29 28 28 28 29 29 30 30 29 29 28 27 26 25
29 30 32 33 33 32 31 30 29 29 28 28 27 26 26 25 25 24 23 22 22 22 23 23 23 22 22 21 21 20 19 19 19 19 20 21 22 24 26 27 28 28 29 30 31 33 34 34 33 33 32 32 32 31 32 31 30 29 29 29 29 30 30 30 29 29 28 27 26
27 28 30 31 30 30 29 29 28 27 27 26 25 24 23 23 22 21 21 22 24 24 23 22 21 21 21 21 20 19 18 18 18 18 19 20 21 23 24 25 26 26 27 29 31 33 33 33 32 31 31 31 31 31 32 32 31 30 29 29 29 29 29 29 29 29 28 27 26
26 27 29 29 30 30 29 27 26 26 25 24 23 22 21 21 21 21 22 23 23 22 20 19 19 20 20 20 19 18 17 17 17 17 18 18 19 20 21 22 23 24 26 29 30 31 30 30 29 29 29 30 30 31 32 32 32 31 30 29 28 28 29 29 29 29 28 27 25
25 26 27 28 28 28 28 27 25 24 23 22 21 21 20 20 21 22 22 22 21 19 19 18 18 19 19 18 17 16 16 16 16 16 17 17 18 18 20 21 23 26 28 29 29 28 27 27 27 28 28 29 30 31 32 32 31 31 30 29 28 28 28 28 29 28 27 26 24
22 24 25 25 26 26 27 26 25 24 23 22 21 21 21 21 21 21 21 20 19 18 17 17 17 17 17 16 15 14 14 14 15 15 16 17 18 19 21 23 26 28 29 29 28 27 26 26 26 26 27 28 29 30 31 31 31 31 30 30 29 29 28 28 28 27 26 25 23
19 20 21 22 23 24 24 25 24 24 23 22 22 22 21 21 20 20 19 18 18 17 16 16 15 15 15 15 14 13 12 11 12 12 13 14 15 17 19 21 24 26 27 28 28 27 26 25 25 25 26 27 28 29 30 30 30 30 30 31 30 29 29 29 28 27 26 24 22
16 17 18 19 20 21 22 22 22 22 22 22 21 21 20 19 18 18 17 17 16 16 15 14 14 14 14 13 11 10 9 10 10 11 12 12 13 14 16 18 20 22 24 26 26 26 26 25 25 25 26 27 28 28 28 28 28 29 30 30 30 30 30 31 31 30 28 25 22
14 15 16 17 18 19 19 20 20 20 20 19 18 18 17 17 16 16 15 15 14 13 13 13 13 13 12 10 9 9 10 11 12 12 12 12 12 13 14 15 17 18 20 21 23 24 25 25 25 26 27 28 28 28 28 27 27 27 28 29 30 31 31 32 33 34 33 29 24
12 13 14 15 16 16 17 17 17 17 16 16 15 15 14 14 14 14 13 13 12 12 12 12 12 11 9 8 8 9 10 12 12 12 12 12 12 13 13 14 14 15 16 18 19 21 22 23 23 25 26 27 28 28 28 28 27 27 27 28 29 30 31 32 34 35 34 30 24
12 12 12 13 14 14 14 14 14 14 13 13 12 12 12 12 12 12 11 11 11 11 11 11 10 8 8 8 8 9 10 11 11 11 11 12 13 14 14 14 14 14 15 16 17 18 19 20 20 21 23 24 26 27 28 28 28 28 28 29 29 30 31 33 34 34 31 26 21
12 12 12 12 12 12 12 12 11 11 11 10 10 10 10 10 10 10 10 10 10 10 9 9 8 8 8 9 9 9 10 10 10 10 11 12 13 14 14 15 15 15 15 16 16 17 17 17 18 19 20 21 23 24 26 27 28 29 29 29 30 31 31 32 32 30 26 20 18
11 11 11 11 11 11 10 10 10 9 9 9 9 8 9 9 9 9 9 9 9 8 8 8 7 8 9 9 9 8 8 8 8 9 10 11 12 13 14 15 16 16 16 16 16 16 16 16 17 17 18 19 20 22 24 26 27 28 28 29 29 30 29 28 27 23 19 16 17
11 11 11 10 10 9 9 9 9 8 8 8 8 8 8 8 8 8 8 8 8 8 7 7 8 8 8 7 7 7 7 8 8 8 9 10 11 12 13 14 15 16 16 16 16 16 16 16 16 17 17 17 18 19 21 23 24 25 26 27 27 27 26 24 21 18 15 15 17
11 10 10 9 9 9 8 8 8 8 7 7 7 7 7 7 8 8 8 8 8 7 7 7 8 7 7 6 6 7 7 7 8 8 9 10 11 11 12 13 13 14 14 15 16 16 16 17 17 17 16 16 15 16 17 19 20 22 23 24 25 25 23 20 17 15 14 15 17
10 10 9 9 8 8 8 8 8 7 7 7 7 6 7 7 8 8 8 8 8 8 8 8 7 7 6 6 6 7 7 8 9 10 10 11 11 11 11 11 12 13 13 14 15 16 17 17 17 17 16 15 14 14 14 15 16 17 19 21 23 23 21 18 16 14 15 17 19
10 10 9 9 9 8 8 8 8 8 7 7 7 7 7 8 8 8 8 8 8 8 8 7 7 7 6 6 7 7 8 9 10 11 10 10 10 10 10 11 12 12 13 13 14 15 16 16 16 15 14 13 12 12 12 12 13 14 16 19 21 21 20 18 16 15 16 18 20
11 10 10 9 9 9 9 8 8 8 8 7 7 7 7 7 8 8 8 8 8 8 8 7 7 7 7 7 7 8 9 10 10 10 10 9 9 10 11 11 12 12 12 12 13 13 14 14 14 13 13 11 11 10 11 11 11 12 14 17 19 20 19 17 16 16 17 19 21
11 11 10 10 10 9 9 9 9 8 8 8 7 7 7 7 7 8 8 8 8 8 8 8 7 7 8 8 8 9 9 10 10 10 9 9 9 10 10 11 11 12 12 12 12 12 12 12 12 12 11 10 10 10 11 11 11 11 13 16 17 17 16 15 16 17 19 21 22
11 11 11 10 10 10 9 9 9 8 8 8 7 7 7 8 8 8 8 8 8 8 8 8 8 8 8 9 9 10 10 11 11 10 10 10 9 9 10 10 11 11 12 12 12 12 12 11 11 11 11 10 11 11 11 11 10 11 13 14 14 13 14 15 17 18 20 21 21
11 11 11 10 10 10 10 9 9 9 8 8 8 8 8 8 8 8 8 8 8 8 8 8 8 9 9 10 10 11 11 11 11 11 10 9 9 9 9 10 11 11 11 11 12 12 11 11 10 11 11 11 11 11 11 10 11 11 12 13 13 13 14 16 18 19 20 20 20
11 11 11 11 10 10 10 10 9 9 9 9 9 9 9 9 9 9 9 9 9 9 9 9 9 10 10 11 11 12 12 12 11 10 10 9 9 10 10 10 11 11 11 11 11 11 11 11 11 11 11 11 11 11 10 10 11 11 12 13 13 14 15 16 17 18 19 19 18
11 11 11 11 11 11 11 11 10 10 10 10 10 10 10 10 10 10 10 10 11 11 11 10 11 11 11 11 11 12 12 11 11 10 10 10 10 10 11 11 12 12 11 11 11 11 12 12 12 12 12 12 11 11 10 10 11 12 13 13 13 14 14 15 15 16 17 17 17
12 12 12 12 12 12 12 11 11 11 11 11 11 11 11 11 11 12 12 12 12 12 11 11 11 11 11 11 11 11 12 12 11 11 10 10 10 11 11 12 12 12 11 11 11 11 12 12 12 12 12 12 11 11 11 11 11 13 13 13 13 13 13 14 15 16 17 17 16
12 12 12 13 13 13 12 12 12 12 12 12 12 12 12 12 13 13 13 12 12 12 12 11 11 11 11 12 12 12 12 12 12 11 11 10 10 11 11 12 12 12 11 11 11 12 12 12 12 12 12 11 11 11 11 11 13 13 13 13 12 12 13 14 15 16 16 16 14
13 13 13 13 13 13 13 13 13 13 13 13 13 13 13 13 13 13 13 13 12 12 12 12 12 12 12 12 12 12 12 13 12 12 11 11 11 11 12 12 12 12 12 12 12 12 12 12 11 11 11 11 11 11 11 12 13 14 13 12 12 12 13 14 15 15 15 14 13
13 13 13 14 14 14 14 14 14 14 14 14 14 14 13 13 13 13 13 13 13 13 13 13 13 13 13 13 13 13 13 13 13 12 12 11 11 11 12 13 13 12 12 12 12 12 12 12 11 11 11 10 10 11 12 13 14 14 13 13 13 13 14 15 15 15 14 13 12
13 13 13 13 14 14 14 14 14 14 14 14 14 14 14 14 14 14 14 14 14 13 13 13 14 14 14 14 14 14 14 14 14 13 12 12 11 12 13 13 13 13 12 12 12 12 12 12 11 11 10 10 10 11 12 13 14 14 14 14 14 15 15 15 15 14 13 13 13
12 12 12 13 13 13 13 13 13 13 13 13 13 13 14 14 14 14 14 14 14 14 14 14 15 15 15 15 15 14 14 14 14 14 13 12 12 12 13 14 13 13 12 12 12 12 12 11 11 11 10 10 11 12 13 14 15 15 15 15 16 16 16 16 14 14 14 14 15
11 11 12 12 12 12 12 12 12 13 13 13 13 13 13 14 14 14 14 14 14 14 15 15 15 15 15 16 16 15 15 14 14 14 13 13 13 13 13 13 13 12 12 12 12 12 11 11 11 11 10 11 11 12 14 15 16 16 16 17 17 16 16 15 15 15 15 16 16
11 11 11 11 11 11 12 12 12 12 12 12 13 13 13 13 13 13 14 14 14 14 14 15 15 15 15 15 15 15 15 15 14 14 14 13 13 13 13 14 13 13 12 12 12 12 11 11 11 11 11 11 12 13 15 16 17 17 17 17 17 16 16 16 16 16 17 17 17
11 11 11 11 11 11 11 11 11 11 12 12 12 12 12 12 12 13 13 13 13 13 13 14 14 14 14 14 14 14 15 15 14 14 14 13 13 13 14 14 14 13 13 13 12 12 11 11 11 11 11 12 12 14 15 17 18 18 18 17 17 17 17 17 18 18 18 18 18
11 11 11 11 10 10 10 11 11 11 11 12 12 12 12 12 12 12 12 12 12 12 13 13 13 14 14 14 14 14 14 14 14 14 13 13 14 14 14 14 14 14 13 13 12 12 11 11 11 11 12 12 13 14 16 17 18 18 18 18 18 18 18 18 18 18 17 17 17
11 11 11 11 10 10 10 11 11 11 11 11 11 11 11 11 11 11 11 12 11 12 12 12 13 13 13 13 13 13 14 14 14 14 14 14 14 15 14 14 14 14 13 13 12 11 11 11 11 12 12 12 13 14 16 17 18 19 19 19 19 19 19 19 18 18 17 17 18
11 11 11 11 11 11 11 11 11 11 11 11 11 10 10 10 10 10 11 11 11 11 11 12 12 12 13 13 12 13 13 13 13 13 14 14 14 14 14 14 13 13 13 12 12 11 11 11 11 12 12 12 13 14 15 17 18 19 19 19 19 19 19 19 19 18 18 18 19
12 11 11 11 11 11 11 11 10 10 10 10 10 10 9 9 9 10 10 10 10 10 11 11 11 12 12 12 11 12 12 12 12 13 13 13 13 13 13 12 12 12 12 12 11 11 11 11 11 12 12 12 13 14 15 17 18 18 19 19 19 19 19 19 20 19 19 19 20
Wind_Direction
231 232 233 234 235 236 237 239 241 242 244 246 248 251 253 255 257 260 262 264 266 268 269 270 271 270 268 266 262 258 255 253 252 253 254 255 257 258 259 261 263 263 261 258 255 251 247 243 243 244 245 243 238 233 230 231 236 240 241 241 241 241 242 242 242 243 244 245 247
231 232 233 234 235 236 238 239 240 242 244 246 249 251 254 256 258 260 262 265 267 270 271 272 273 272 271 269 266 263 260 257 256 255 255 256 257 258 259 262 264 265 263 260 256 252 248 245 245 245 244 242 240 235 230 229 234 240 243 243 242 242 242 242 243 243 244 245 247
231 232 233 234 235 236 237 238 240 242 244 246 249 251 254 256 258 261 264 266 268 270 270 271 272 273 272 271 269 267 265 263 260 258 257 257 258 259 260 260 261 262 262 261 258 254 251 247 247 247 245 243 242 239 234 230 232 238 242 244 244 244 243 243 243 244 245 246 248
232 232 233 234 236 237 238 239 241 243 245 247 249 251 253 256 259 262 265 267 268 269 269 271 272 273 274 274 272 271 269 267 264 262 261 260 261 262 263 262 260 259 259 260 259 256 254 251 250 249 247 244 243 242 239 233 232 235 240 244 246 246 245 245 245 246 247 248 250
232 233 234 236 238 240 241 243 244 246 247 249 250 251 253 256 259 261 264 266 268 270 271 273 273 274 275 275 275 274 271 269 267 265 264 264 265 266 266 265 263 261 260 261 260 260 258 256 254 251 249 246 244 243 241 236 232 232 236 241 245 247 247 247 247 247 249 250 251
234 234 236 237 239 241 243 245 247 248 249 250 251 252 254 257 259 261 264 267 270 271 272 272 273 274 276 277 277 276 274 271 269 268 266 266 266 265 264 262 262 262 262 263 264 264 262 259 256 254 251 248 245 243 242 240 236 232 232 236 242 246 247 248 248 249 250 251 252
236 236 237 238 240 242 244 246 247 248 249 250 251 253 255 258 260 263 265 267 268 269 270 272 274 276 277 278 279 279 278 276 274 273 271 270 269 267 263 260 260 261 263 265 265 264 262 259 257 254 252 248 246 244 244 243 240 236 232 232 237 242 246 248 249 249 250 252 253
238 238 238 239 241 243 244 245 246 247 247 249 251 254 256 259 261 263 264 266 266 268 271 273 276 278 279 280 281 282 282 282 280 279 277 276 275 272 269 266 266 266 266 266 265 263 260 257 255 254 252 249 247 246 245 244 243 240 236 233 233 237 243 247 249 249 250 251 252
236 237 238 240 241 242 244 245 246 247 247 249 251 254 256 258 259 261 263 265 268 271 273 275 277 279 280 281 283 285 285 285 283 282 280 280 279 278 276 274 273 271 269 268 265 262 259 257 256 254 253 251 249 247 247 246 246 246 243 239 235 236 240 244 247 249 250 250 251
234 235 236 238 240 241 243 244 245 246 248 249 251 253 254 256 259 261 263 266 269 272 274 276 277 279 280 282 284 286 285 284 283 281 281 280 280 279 278 277 275 273 271 269 265 263 261 260 257 256 255 253 252 250 248 248 249 250 249 246 242 238 238 242 246 249 250 250 250
232 234 236 237 239 240 242 243 244 244 246 247 249 251 253 255 258 261 264 267 269 270 273 275 277 280 282 283 282 281 281 281 282 282 282 282 281 281 281 280 278 275 273 271 267 265 264 263 261 259 257 256 254 252 251 250 251 252 252 251 246 240 237 238 243 248 251 251 251
231 233 235 237 238 240 241 242 242 243 244 246 248 250 252 255 258 260 263 265 267 270 272 274 277 279 280 279 278 278 279 280 281 282 283 283 283 283 284 284 282 280 277 275 270 267 266 265 264 262 260 259 257 255 253 251 252 253 253 253 250 243 237 234 237 242 246 248 249
227 230 232 234 236 238 239 240 241 242 244 245 247 249 252 254 257 259 261 264 267 270 272 274 276 276 276 277 279 279 276 272 270 270 273 277 278 281 284 285 286 286 284 281 277 273 269 267 266 264 263 262 261 259 256 254 253 253 255 256 254 249 242 236 234 235 236 238 240
220 224 227 229 232 234 236 238 239 240 242 244 246 248 250 253 255 258 261 264 267 270 272 273 274 275 277 278 278 272 265 262 261 263 266 270 272 275 279 282 286 289 291 290 286 281 275 271 269 267 266 266 266 264 260 257 255 255 257 259 259 256 251 246 241 237 234 231 230
212 216 219 223 226 229 231 233 235 237 239 241 243 246 248 251 254 257 260 263 266 269 271 273 275 276 276 273 267 263 262 264 266 267 268 268 268 268 270 275 281 289 294 297 296 291 285 279 275 272 271 271 270 268 265 261 259 258 259 261 263 262 260 255 249 243 237 231 226
204 207 210 214 218 222 225 228 230 232 234 237 239 242 246 249 252 255 259 262 264 267 270 272 273 271 267 262 259 261 266 270 272 272 270 267 265 265 268 274 279 286 293 300 303 301 296 290 283 279 276 275 273 271 268 265 263 261 262 263 265 265 264 259 253 246 238 230 223
196 198 202 206 210 213 217 219 222 224 227 230 233 236 240 244 248 252 257 261 264 266 266 265 263 260 260 262 263 266 270 273 273 270 267 265 264 266 269 274 277 280 286 294 301 305 304 299 293 287 282 279 277 275 272 269 267 265 264 265 265 265 264 259 252 244 235 225 219
189 191 193 197 201 204 207 210 213 215 218 221 224 228 233 239 246 251 257 260 261 261 259 257 257 260 266 269 270 270 268 267 267 265 263 263 264 266 268 270 272 274 278 284 291 298 302 302 300 295 289 284 280 278 275 273 270 268 267 266 265 263 260 255 247 237 227 217 217
185 185 188 190 193 196 198 202 205 208 210 214 217 222 230 238 245 250 253 253 252 251 251 256 262 267 271 272 270 264 260 259 261 261 261 263 265 266 266 268 269 271 273 276 280 285 289 293 295 296 293 289 284 280 278 276 274 271 268 265 262 259 254 247 237 227 217 212 216
181 182 183 185 187 190 193 196 199 202 205 208 212 219 228 236 241 243 244 244 244 246 253 260 267 270 270 268 266 262 258 258 259 262 264 267 268 269 269 269 270 271 273 273 275 276 278 282 285 288 290 290 288 285 282 280 276 272 267 263 258 253 247 237 226 216 210 212 216
179 179 180 182 185 187 190 193 196 198 201 204 208 215 224 231 235 237 238 240 244 250 257 262 265 267 267 266 266 265 263 262 264 267 270 272 273 274 274 274 274 274 275 274 274 274 275 277 280 283 285 287 287 287 285 281 276 270 264 258 253 247 240 229 218 209 208 212 217
177 178 179 181 184 186 189 192 194 196 198 201 206 212 220 228 231 233 237 242 248 253 256 258 261 262 264 264 263 262 263 267 270 273 274 274 274 274 274 275 277 277 277 278 277 277 278 279 281 282 283 282 282 280 277 272 266 260 256 253 249 243 235 224 213 207 208 213 219
177 179 180 182 184 186 188 191 193 195 198 202 207 212 218 224 228 233 237 243 247 251 252 255 257 259 259 258 256 256 261 270 273 274 273 271 270 269 270 272 276 280 283 283 283 282 282 282 282 281 279 276 272 268 263 257 251 248 247 246 244 238 230 218 208 204 207 213 219
180 181 183 185 186 188 190 192 194 198 201 205 210 215 220 225 229 234 238 242 245 247 249 251 253 254 253 252 250 253 261 270 273 272 269 267 265 265 266 269 274 279 283 285 285 284 283 281 279 276 272 266 260 255 250 245 240 237 236 237 235 229 218 206 201 203 208 214 217
183 184 186 188 189 190 192 195 198 201 205 209 214 219 223 227 231 235 238 241 243 244 246 246 247 248 248 248 248 253 260 267 269 268 266 265 265 264 264 266 270 274 278 281 283 283 281 278 274 269 264 258 252 247 243 238 230 225 223 223 218 210 201 197 200 206 211 214 215
186 187 189 190 192 194 196 199 202 205 209 213 217 220 223 227 230 233 235 237 239 241 242 241 241 242 244 245 247 252 257 261 264 265 264 265 264 265 265 266 269 272 275 278 280 280 279 275 269 263 258 253 249 245 240 233 223 214 207 202 197 195 197 201 207 211 213 214 212
189 190 192 194 196 197 200 203 206 209 212 215 217 220 222 226 228 230 231 233 235 236 237 237 237 239 240 244 247 251 255 258 261 262 262 261 260 261 262 264 267 270 273 276 277 277 275 271 265 259 255 251 249 246 240 228 214 202 193 187 189 195 203 209 212 214 213 211 209
191 193 195 197 199 201 204 206 208 211 213 215 217 219 221 223 224 226 227 229 231 232 234 235 236 238 241 244 247 251 254 257 258 259 258 256 254 254 257 260 264 268 271 274 275 274 272 268 263 258 255 252 250 246 238 222 204 191 185 186 194 203 209 212 213 212 210 207 206
194 196 198 200 202 204 206 207 209 211 213 215 216 218 219 220 221 222 224 226 227 229 232 234 237 239 242 245 248 251 252 254 255 256 255 253 251 251 252 256 261 265 269 272 272 271 269 265 262 257 254 251 248 243 233 216 196 185 185 192 201 207 210 211 209 207 205 204 207
197 199 201 202 204 205 206 207 208 210 211 213 214 215 216 217 219 220 222 224 226 229 231 234 237 240 243 245 247 249 250 252 252 252 252 251 250 249 250 254 259 263 267 269 269 268 266 263 260 256 252 248 243 236 224 208 192 186 188 196 202 206 207 206 204 202 202 206 214
199 201 202 203 204 205 205 206 207 209 210 211 212 213 214 216 218 220 223 225 227 230 232 235 238 240 243 244 246 248 248 249 250 250 249 249 248 247 248 251 256 260 263 265 266 265 263 261 258 254 250 244 237 227 214 201 191 189 191 196 199 201 202 201 200 201 206 216 231
201 202 203 204 205 205 205 206 207 208 210 210 211 213 215 217 219 221 224 226 229 232 235 237 239 241 243 244 245 246 247 248 249 249 248 246 244 243 244 248 252 256 259 260 261 261 259 257 254 250 246 239 229 217 206 197 193 192 193 195 196 197 197 197 199 205 216 230 247
201 203 203 204 205 205 205 206 207 208 210 211 212 214 216 219 221 224 227 229 232 234 236 238 240 241 243 244 245 246 246 247 248 248 247 245 241 240 241 244 249 252 254 255 256 256 255 252 250 247 242 233 221 210 202 197 194 193 193 193 194 195 196 197 202 212 226 240 251
200 201 202 203 204 204 205 206 207 208 210 212 214 216 219 221 224 226 229 231 234 236 237 239 240 242 243 244 245 246 247 248 248 248 247 244 240 239 240 242 246 248 249 250 251 251 249 248 245 242 236 226 214 204 199 197 195 193 193 193 193 195 197 201 209 221 233 242 248
196 198 200 201 202 203 204 205 206 208 210 213 216 218 221 224 226 228 231 233 236 237 239 241 242 244 245 247 248 248 249 249 249 248 245 241 239 238 240 242 244 244 244 245 246 246 244 242 239 236 229 220 208 201 198 196 194 193 192 193 194 197 202 209 218 228 237 243 248
193 195 198 199 200 201 202 204 206 209 212 215 218 221 223 226 228 231 233 236 238 240 242 244 245 247 248 249 250 250 249 248 247 245 242 238 237 237 239 241 242 241 241 241 241 241 239 237 233 229 223 214 205 199 197 195 194 193 194 195 198 202 209 217 225 232 239 245 252
190 193 196 198 200 201 203 205 208 211 214 218 220 223 226 228 231 234 237 239 241 242 245 246 248 249 249 249 249 249 248 247 244 241 238 236 236 236 238 240 240 239 238 238 237 236 233 230 227 223 218 210 203 199 197 196 195 196 198 201 205 210 217 224 230 236 243 250 257
189 192 195 198 201 203 205 207 211 214 217 220 223 226 229 231 234 237 240 242 243 245 248 249 250 250 251 251 250 249 248 245 241 237 235 235 236 237 238 238 238 237 236 235 233 230 227 224 221 218 214 208 203 200 198 198 198 200 204 208 213 219 224 230 236 242 249 255 260
189 191 195 199 202 205 207 210 214 217 220 223 225 228 231 234 237 241 244 247 248 249 251 252 253 253 253 253 252 250 247 244 239 235 233 235 238 239 238 237 235 235 233 231 228 224 220 218 216 214 212 208 205 203 201 202 204 207 211 216 221 226 232 237 243 249 254 259 262
189 192 195 199 203 206 209 213 215 218 221 224 228 231 234 237 241 245 249 251 252 253 253 255 255 257 257 256 253 250 247 244 239 235 235 236 239 239 237 235 232 231 229 226 221 217 214 213 212 212 211 210 210 208 208 208 211 215 219 224 229 234 239 244 249 254 258 262 265
189 193 196 200 204 207 211 214 216 218 221 225 229 233 236 239 243 247 250 252 253 254 255 256 258 259 260 259 256 252 249 245 240 238 237 238 238 236 233 230 227 225 223 219 214 210 209 210 211 212 213 213 215 215 215 216 220 224 228 233 237 242 246 250 254 258 262 265 268